Location: Unspecified
(40.8819°N, 0.0000°E)
Time: 23:51:44
(UTC+00:00)

CAS-4B - Visible Passes

Search period start: 23 April 2024 00:00
Search period end: 03 May 2024 00:00
Orbit: 479 x 497 km, 43.0° (Epoch: 23 April)

Date Brightness Start Highest point End Pass type
(mag) Time Alt. Az. Time Alt. Az. Time Alt. Az.
23 Apr ? 02:56:07 68° N 02:56:07 68° N 02:59:55 10° ENE visible
23 Apr ? 04:31:32 10° WNW 04:35:21 71° N 04:39:11 10° E visible
24 Apr ? 02:30:59 43° ENE 02:30:59 43° ENE 02:33:43 10° ENE visible
24 Apr ? 04:05:20 10° WNW 04:09:09 70° N 04:12:59 10° E visible
25 Apr ? 02:05:50 24° ENE 02:05:50 24° ENE 02:07:28 10° ENE visible
25 Apr ? 03:40:10 18° WNW 03:42:54 70° N 03:46:44 10° E visible
26 Apr ? 01:40:44 13° ENE 01:40:44 13° ENE 01:41:10 10° ENE visible
26 Apr ? 03:15:04 33° WNW 03:16:37 70° N 03:20:25 10° E visible
27 Apr ? 02:50:02 68° NNW 02:50:15 70° N 02:54:04 10° E visible
27 Apr ? 04:25:35 10° W 04:29:13 43° SSW 04:32:52 10° SE visible
28 Apr ? 02:25:07 39° E 02:25:07 39° E 02:27:39 10° E visible
28 Apr ? 03:59:28 12° W 04:02:49 44° SSW 04:06:28 10° SE visible
29 Apr ? 02:00:26 15° E 02:00:26 15° E 02:01:12 10° E visible
29 Apr ? 03:34:48 27° W 03:36:22 44° SSW 03:40:01 10° SE visible
30 Apr ? 03:10:24 41° S 03:10:24 41° S 03:13:31 10° SE visible
01 May ? 02:46:23 14° SE 02:46:23 14° SE 02:46:58 10° SE visible
02 May ? 20:49:23 10° SW 20:51:57 35° SSW 20:51:57 35° SSW visible
